Tracking 29892 objects as of 21-Nov-2024
HD Live streaming from Space Station
objects crossing your sky now

STARLINK-11213

Track STARLINK-11213 now!
10-day predictions
STARLINK-11213 is classified as:


NORAD ID: 60309
Int'l Code: 2024-133J
Perigee: 366.0 km
Apogee: 367.8 km
Inclination: 53.2 °
Period: 91.7 minutes
Semi major axis: 6737 km
RCS: Unknown
Launch date: July 28, 2024
Source: United States (US)
Launch site: AIR FORCE WESTERN TEST RANGE (AFWTR)
Your satellite tracking list
Your tracking list is empty




NASA's NSSDC Master Catalog

Two Line Element Set (TLE):
1 60309U 24133J   24326.03016239 -.00000475  00000-0  93945-6 0  9995
2 60309  53.1582 320.9612 0001357  84.6004 275.5169 15.69708084 19233
Source of the keplerian elements: AFSPC